| time (UTC) | temp F | wind direction | speed MPH | gust MPH | rain 1hr in | rain 24hr in | rain mn in | humidity % | barometer mb |
| 20260506023941 | 38 | 0.0 | 0.0 | 0.00 | 0.03 | 0.00 | 94 | 1005.6 | |
| 20260506022929 | 38 | 0.0 | 0.0 | 0.00 | 0.03 | 0.00 | 93 | 1005.8 | |
| 20260506021921 | 38 | 0.0 | 0.0 | 0.00 | 0.03 | 0.00 | 94 | 1006.0 | |
| 20260506020921 | 38 | 0.0 | 0.0 | 0.00 | 0.03 | 0.00 | 93 | 1006.0 | |
| 20260506015921 | 38 | 0.0 | 0.0 | 0.00 | 0.03 | 0.00 | 93 | 1006.0 | |
| 20260506014929 | 39 | 0.0 | 0.0 | 0.00 | 0.03 | 0.00 | 93 | 1006.0 | |
| 20260506013921 | 39 | 0.0 | 0.0 | 0.00 | 0.03 | 0.00 | 91 | 1006.0 | |
| 20260506012929 | 39 | 0.0 | 0.0 | 0.00 | 0.03 | 0.00 | 92 | 1006.0 | |
| 20260506011921 | 39 | 0.0 | 0.0 | 0.00 | 0.03 | 0.00 | 93 | 1006.0 | |
| 20260506010929 | 39 | 0.0 | 0.0 | 0.00 | 0.03 | 0.00 | 91 | 1006.4 | |
| 20260506005941 | 39 | 0.0 | 0.0 | 0.00 | 0.03 | 0.00 | 91 | 1006.7 | |
| 20260506004921 | 39 | 0.0 | 0.0 | 0.00 | 0.03 | 0.00 | 91 | 1006.8 | |
| 20260506003941 | 39 | 0.0 | 0.0 | 0.00 | 0.03 | 0.00 | 91 | 1006.8 | |
| 20260506002929 | 40 | 0.0 | 0.0 | 0.00 | 0.03 | 0.00 | 90 | 1006.9 | |
| 20260506001921 | 40 | 0.0 | 0.0 | 0.00 | 0.03 | 0.00 | 90 | 1006.8 | |
| 20260506000929 | 39 | 0.0 | 0.0 | 0.00 | 0.03 | 0.00 | 89 | 1007.2 | |
| 20260505235921 | 39 | 0.0 | 0.0 | 0.00 | 0.03 | 0.00 | 90 | 1007.2 | |
| 20260505234929 | 40 | 0.0 | 0.0 | 0.00 | 0.03 | 0.00 | 91 | 1007.2 | |
| 20260505233921 | 39 | 47 | 2.0 | 5.0 | 0.00 | 0.03 | 0.00 | 91 | 1007.6 |
| 20260505232922 | 39 | 0.0 | 0.0 | 0.00 | 0.03 | 0.00 | 90 | 1007.6 | |
| 20260505231921 | 39 | 80 | 0.0 | 2.0 | 0.00 | 0.03 | 0.00 | 91 | 1008.0 |
| 20260505231009 | 39 | 0.0 | 0.0 | 0.00 | 0.03 | 0.00 | 91 | 1007.6 | |
| 20260505225921 | 39 | 0.0 | 0.0 | 0.00 | 0.03 | 0.00 | 91 | 1007.2 | |
| 20260505224929 | 39 | 97 | 3.0 | 5.0 | 0.00 | 0.03 | 0.00 | 91 | 1007.6 |
| 20260505223921 | 39 | 85 | 2.0 | 5.0 | 0.00 | 0.03 | 0.00 | 91 | 1007.6 |
| 20260505222929 | 40 | 113 | 0.0 | 2.0 | 0.00 | 0.03 | 0.00 | 91 | 1008.0 |
| 20260505221941 | 40 | 79 | 7.0 | 10.0 | 0.00 | 0.03 | 0.00 | 93 | 1008.0 |
| 20260505220924 | 40 | 0.0 | 0.0 | 0.00 | 0.03 | 0.00 | 90 | 1008.0 | |
| 20260505215941 | 40 | 0.0 | 0.0 | 0.00 | 0.03 | 0.03 | 90 | 1008.0 | |
| 20260505214929 | 40 | 0.0 | 0.0 | 0.00 | 0.03 | 0.03 | 88 | 1008.0 | |
| 20260505213921 | 40 | 0.0 | 0.0 | 0.00 | 0.03 | 0.03 | 88 | 1008.0 | |
| 20260505212929 | 40 | 0.0 | 0.0 | 0.00 | 0.03 | 0.03 | 87 | 1008.0 | |
| 20260505211921 | 41 | 0.0 | 0.0 | 0.00 | 0.03 | 0.03 | 89 | 1008.4 | |
| 20260505210929 | 41 | 73 | 10.0 | 13.0 | 0.00 | 0.03 | 0.03 | 89 | 1008.4 |
| 20260505205920 | 42 | 91 | 11.0 | 15.0 | 0.00 | 0.03 | 0.03 | 88 | 1008.3 |
| 20260505204920 | 42 | 120 | 7.0 | 10.0 | 0.00 | 0.03 | 0.03 | 82 | 1008.4 |
| 20260505203920 | 42 | 34 | 1.0 | 2.0 | 0.00 | 0.03 | 0.03 | 80 | 1008.4 |
| 20260505202929 | 42 | 339 | 1.0 | 2.0 | 0.00 | 0.03 | 0.03 | 82 | 1008.4 |
| 20260505201921 | 42 | 23 | 0.0 | 2.0 | 0.00 | 0.03 | 0.03 | 82 | 1008.3 |
| 20260505200928 | 42 | 0.0 | 0.0 | 0.00 | 0.03 | 0.03 | 80 | 1008.3 | |
| 20260505195940 | 43 | 0.0 | 0.0 | 0.00 | 0.03 | 0.03 | 81 | 1008.4 | |
| 20260505194929 | 43 | 0.0 | 0.0 | 0.00 | 0.03 | 0.03 | 78 | 1008.0 | |
| 20260505193921 | 43 | 128 | 5.0 | 8.0 | 0.00 | 0.03 | 0.03 | 77 | 1008.0 |
| 20260505192921 | 43 | 0.0 | 0.0 | 0.00 | 0.03 | 0.03 | 79 | 1008.0 | |
| 20260505191940 | 42 | 0.0 | 0.0 | 0.00 | 0.03 | 0.03 | 80 | 1008.0 | |
| 20260505190949 | 42 | 0.0 | 0.0 | 0.00 | 0.03 | 0.03 | 81 | 1008.0 | |
| 20260505185920 | 43 | 0.0 | 0.0 | 0.00 | 0.03 | 0.03 | 81 | 1007.7 | |
| 20260505184928 | 43 | 84 | 1.0 | 2.0 | 0.00 | 0.03 | 0.03 | 82 | 1008.0 |
| 20260505183920 | 43 | 0.0 | 0.0 | 0.00 | 0.03 | 0.03 | 81 | 1008.0 | |
| 20260505182928 | 43 | 0.0 | 0.0 | 0.00 | 0.03 | 0.03 | 81 | 1007.9 | |
| 20260505181920 | 44 | 61 | 4.0 | 8.0 | 0.00 | 0.03 | 0.03 | 78 | 1007.6 |
| 20260505180941 | 44 | 0.0 | 0.0 | 0.00 | 0.03 | 0.03 | 78 | 1007.9 | |
| 20260505175920 | 44 | 61 | 2.0 | 8.0 | 0.00 | 0.03 | 0.03 | 79 | 1007.6 |
| 20260505174928 | 44 | 164 | 2.0 | 5.0 | 0.00 | 0.03 | 0.03 | 78 | 1007.6 |
| 20260505173940 | 44 | 0.0 | 0.0 | 0.00 | 0.03 | 0.03 | 78 | 1007.7 | |
| 20260505172928 | 44 | 163 | 4.0 | 8.0 | 0.00 | 0.03 | 0.03 | 78 | 1007.8 |
| 20260505171921 | 44 | 107 | 6.0 | 10.0 | 0.00 | 0.03 | 0.03 | 77 | 1007.6 |
| 20260505170928 | 44 | 101 | 6.0 | 10.0 | 0.00 | 0.03 | 0.03 | 79 | 1007.6 |
| 20260505165920 | 44 | 110 | 10.0 | 13.0 | 0.00 | 0.03 | 0.03 | 78 | 1008.0 |
| 20260505164921 | 44 | 111 | 4.0 | 8.0 | 0.00 | 0.03 | 0.03 | 78 | 1007.7 |
| 20260505163920 | 44 | 101 | 5.0 | 8.0 | 0.00 | 0.03 | 0.03 | 77 | 1007.8 |
| 20260505163009 | 44 | 96 | 4.0 | 8.0 | 0.00 | 0.03 | 0.03 | 77 | 1007.6 |
| 20260505161940 | 44 | 97 | 1.0 | 5.0 | 0.00 | 0.03 | 0.03 | 78 | 1007.7 |
| 20260505160928 | 45 | 101 | 7.0 | 13.0 | 0.00 | 0.03 | 0.03 | 78 | 1008.0 |
| 20260505152920 | 45 | 133 | 10.0 | 13.0 | 0.00 | 0.03 | 0.03 | 76 | 1007.6 |
| 20260505151920 | 45 | 145 | 6.0 | 8.0 | 0.00 | 0.03 | 0.03 | 76 | 1007.6 |
| 20260505150928 | 45 | 100 | 4.0 | 8.0 | 0.00 | 0.03 | 0.03 | 74 | 1007.6 |
| 20260505124920 | 45 | 255 | 5.0 | 8.0 | 0.00 | 0.03 | 0.03 | 74 | 1008.4 |
| 20260505123940 | 45 | 0.0 | 0.0 | 0.00 | 0.03 | 0.03 | 71 | 1008.4 | |
| 20260505122928 | 46 | 100 | 3.0 | 8.0 | 0.00 | 0.03 | 0.03 | 72 | 1008.4 |
| 20260505121920 | 46 | 165 | 5.0 | 8.0 | 0.00 | 0.03 | 0.03 | 72 | 1008.4 |
| 20260505120928 | 47 | 237 | 1.0 | 8.0 | 0.00 | 0.03 | 0.03 | 73 | 1008.6 |
| 20260505115920 | 47 | 219 | 9.0 | 13.0 | 0.00 | 0.03 | 0.03 | 72 | 1008.8 |
| 20260505114928 | 47 | 228 | 6.0 | 13.0 | 0.00 | 0.03 | 0.03 | 72 | 1008.8 |
| 20260505113920 | 46 | 245 | 6.0 | 10.0 | 0.00 | 0.03 | 0.03 | 75 | 1008.6 |
| 20260505112920 | 46 | 235 | 9.0 | 15.0 | 0.00 | 0.03 | 0.03 | 75 | 1008.8 |
| 20260505111920 | 46 | 286 | 3.0 | 8.0 | 0.00 | 0.03 | 0.03 | 76 | 1008.8 |
| 20260505110928 | 45 | 168 | 6.0 | 10.0 | 0.00 | 0.03 | 0.03 | 76 | 1008.8 |
| 20260505101920 | 43 | 110 | 6.0 | 10.0 | 0.00 | 0.03 | 0.03 | 89 | 1009.0 |
| 20260505100920 | 42 | 0.0 | 0.0 | 0.00 | 0.03 | 0.03 | 91 | 1009.2 | |
| 20260505095920 | 42 | 0.0 | 0.0 | 0.00 | 0.03 | 0.03 | 94 | 1009.2 | |
| 20260505094928 | 42 | 0.0 | 0.0 | 0.00 | 0.03 | 0.03 | 90 | 1008.8 | |
| 20260505093328 | 42 | 0.0 | 0.0 | 0.00 | 0.03 | 0.03 | 97 | 1008.8 | |
| 20260505092320 | 42 | 0.0 | 0.0 | 0.00 | 0.03 | 0.03 | 96 | 1008.8 | |
| 20260505091348 | 42 | 0.0 | 0.0 | 0.00 | 0.03 | 0.03 | 94 | 1008.8 | |
| 20260505090340 | 41 | 0.0 | 0.0 | 0.00 | 0.03 | 0.03 | 98 | 1008.4 | |
| 20260505085328 | 41 | 0.0 | 0.0 | 0.00 | 0.03 | 0.03 | 98 | 1008.8 | |
| 20260505084320 | 41 | 0.0 | 0.0 | 0.00 | 0.03 | 0.03 | 99 | 1008.8 | |
| 20260505083320 | 41 | 0.0 | 0.0 | 0.00 | 0.03 | 0.03 | 99 | 1008.8 | |
| 20260505082320 | 41 | 0.0 | 0.0 | 0.00 | 0.03 | 0.03 | 99 | 1008.6 | |
| 20260505081328 | 41 | 0.0 | 0.0 | 0.00 | 0.03 | 0.03 | 99 | 1008.8 | |
| 20260505080320 | 41 | 0.0 | 0.0 | 0.00 | 0.03 | 0.03 | 99 | 1009.2 | |
| 20260505075328 | 41 | 0.0 | 0.0 | 0.00 | 0.03 | 0.03 | 99 | 1008.8 | |
| 20260505074320 | 40 | 0.0 | 0.0 | 0.01 | 0.03 | 0.03 | 99 | 1008.8 | |
| 20260505073328 | 40 | 0.0 | 0.0 | 0.01 | 0.03 | 0.03 | 98 | 1008.8 | |
| 20260505072320 | 40 | 0.0 | 0.0 | 0.01 | 0.03 | 0.03 | 99 | 1009.1 | |
| 20260505071340 | 40 | 0.0 | 0.0 | 0.01 | 0.03 | 0.03 | 99 | 1008.8 | |
| 20260505070320 | 40 | 0.0 | 0.0 | 0.01 | 0.03 | 0.03 | 99 | 1009.2 | |
| 20260505065328 | 40 | 0.0 | 0.0 | 0.02 | 0.03 | 0.03 | 99 | 1009.2 | |
| 20260505064320 | 40 | 0.0 | 0.0 | 0.01 | 0.02 | 0.02 | 99 | 1009.2 | |
| 20260505063328 | 40 | 0.0 | 0.0 | 0.01 | 0.02 | 0.02 | 99 | 1009.2 | |
| 20260505062320 | 41 | 0.0 | 0.0 | 0.01 | 0.02 | 0.02 | 98 | 1009.2 | |
| 20260505061348 | 40 | 0.0 | 0.0 | 0.02 | 0.02 | 0.02 | 95 | 1009.5 | |
| 20260505060400 | 40 | 0.0 | 0.0 | 0.02 | 0.02 | 0.02 | 94 | 1009.2 | |
| 20260505055320 | 40 | 0.0 | 0.0 | 0.01 | 0.01 | 0.01 | 95 | 1009.2 | |
| 20260505054320 | 40 | 0.0 | 0.0 | 0.01 | 0.01 | 0.01 | 92 | 1009.2 | |
| 20260505053328 | 40 | 0.0 | 0.0 | 0.01 | 0.01 | 0.01 | 89 | 1009.2 | |
| 20260505052319 | 40 | 0.0 | 0.0 | 0.01 | 0.01 | 0.01 | 90 | 1009.2 | |
| 20260505051328 | 40 | 0.0 | 0.0 | 0.00 | 0.00 | 0.00 | 89 | 1009.2 | |
| 20260505050319 | 40 | 0.0 | 0.0 | 0.00 | 0.00 | 0.00 | 89 | 1009.2 | |
| 20260505041327 | 41 | 24 | 2.0 | 5.0 | 0.00 | 0.00 | 0.00 | 85 | 1009.2 |
| 20260505040400 | 41 | 67 | 4.0 | 8.0 | 0.00 | 0.00 | 0.00 | 85 | 1009.6 |
| 20260505035327 | 42 | 105 | 6.0 | 10.0 | 0.00 | 0.00 | 0.00 | 78 | 1009.6 |
| 20260505034319 | 42 | 94 | 4.0 | 8.0 | 0.00 | 0.00 | 0.00 | 76 | 1009.6 |
| 20260505033328 | 42 | 92 | 6.0 | 8.0 | 0.00 | 0.00 | 0.00 | 76 | 1009.6 |
| 20260505032319 | 42 | 100 | 5.0 | 8.0 | 0.00 | 0.00 | 0.00 | 74 | 1010.0 |
| 20260505031320 | 42 | 97 | 5.0 | 8.0 | 0.00 | 0.00 | 0.00 | 75 | 1009.7 |
| 20260505030319 | 43 | 89 | 8.0 | 10.0 | 0.00 | 0.00 | 0.00 | 71 | 1010.0 |
| 20260505025327 | 43 | 97 | 6.0 | 10.0 | 0.00 | 0.00 | 0.00 | 69 | 1010.0 |
| 20260505024400 | 43 | 112 | 4.0 | 8.0 | 0.00 | 0.00 | 0.00 | 68 | 1010.4 |